Time,TemperatureF,DewpointF,PressureIn,WindDirection,WindDirectionDegrees,WindSpeedMPH,WindSpeedGustMPH,Humidity,HourlyPrecipIn,Conditions,Clouds,dailyrainin,SoftwareType,DateUTC
2013-02-09 00:00:00,18.8,15.8,29.83,NW,315,6.9,6.9,88,0.00,OVC,,0.00,WeatherDisplay:10.37,2013-02-09 05:00:00,
2013-02-09 00:01:00,18.6,16.7,29.80,NNW,338,4.6,4.6,92,0.00,OVC,,0.00,WeatherDisplay:10.37,2013-02-09 05:01:00,
2013-02-09 00:03:00,18.5,15.5,29.80,NNW,338,9.2,9.2,88,0.00,OVC,,0.00,WeatherDisplay:10.37,2013-02-09 05:03:00,
2013-02-09 00:08:00,18.2,15.3,29.80,NW,315,8.1,8.1,88,0.00,OVC,,0.00,WeatherDisplay:10.37,2013-02-09 05:08:00,
2013-02-09 00:13:00,17.9,14.9,29.80,WNW,292,9.2,9.2,88,0.00,OVC,,0.00,WeatherDisplay:10.37,2013-02-09 05:13:00,
2013-02-09 00:18:00,17.5,14.6,29.80,NW,315,6.9,6.9,88,0.00,OVC,,0.00,WeatherDisplay:10.37,2013-02-09 05:18:00,
2013-02-09 00:23:00,17.4,14.5,29.80,NNW,338,11.5,11.5,88,0.00,OVC,,0.00,WeatherDisplay:10.37,2013-02-09 05:23:00,
2013-02-09 00:28:00,17.5,14.6,29.80,North,360,4.6,4.6,88,0.00,OVC,,0.00,WeatherDisplay:10.37,2013-02-09 05:28:00,
2013-02-09 00:33:00,17.6,14.7,29.80,NW,315,8.1,8.1,88,0.00,OVC,,0.00,WeatherDisplay:10.37,2013-02-09 05:33:00,
2013-02-09 00:38:00,17.5,14.6,29.80,NW,315,10.4,10.4,88,0.00,OVC,,0.00,WeatherDisplay:10.37,2013-02-09 05:38:00,
2013-02-09 00:43:00,17.4,14.5,29.80,WNW,292,10.4,10.4,88,0.00,OVC,,0.00,WeatherDisplay:10.37,2013-02-09 05:43:00,
2013-02-09 00:48:00,17.2,14.2,29.80,NNE,22,8.1,8.1,88,0.00,OVC,,0.00,WeatherDisplay:10.37,2013-02-09 05:48:00,
2013-02-09 00:53:00,17.1,14.2,29.80,NW,315,10.9,10.9,88,0.00,OVC,,0.00,WeatherDisplay:10.37,2013-02-09 05:53:00,
2013-02-09 00:58:00,16.8,13.8,29.80,NNW,338,8.1,8.1,88,0.00,OVC,,0.00,WeatherDisplay:10.37,2013-02-09 05:58:00,
2013-02-09 01:03:00,16.7,13.8,29.83,NW,315,16.1,16.1,88,0.00,OVC,,0.00,WeatherDisplay:10.37,2013-02-09 06:03:00,
2013-02-09 01:08:00,16.4,13.4,29.83,NNW,338,21.9,21.9,88,0.00,OVC,,0.00,WeatherDisplay:10.37,2013-02-09 06:08:00,
2013-02-09 01:13:00,16.3,13.4,29.83,NNW,338,10.4,10.4,88,0.00,OVC,,0.00,WeatherDisplay:10.37,2013-02-09 06:13:00,
2013-02-09 01:18:00,16.1,13.2,29.83,NNW,338,18.4,18.4,88,0.00,OVC,,0.00,WeatherDisplay:10.37,2013-02-09 06:18:00,
2013-02-09 01:23:00,15.8,12.9,29.83,NNW,338,18.4,18.4,88,0.00,OVC,,0.00,WeatherDisplay:10.37,2013-02-09 06:23:00,
2013-02-09 01:28:00,15.8,12.9,29.83,NW,315,10.4,10.4,88,0.00,OVC,,0.00,WeatherDisplay:10.37,2013-02-09 06:28:00,
2013-02-09 01:33:00,15.9,12.9,29.83,NNW,338,10.4,10.4,88,0.00,OVC,,0.00,WeatherDisplay:10.37,2013-02-09 06:33:00,
2013-02-09 01:38:00,15.7,12.8,29.83,NNW,338,10.4,10.4,88,0.00,OVC,,0.00,WeatherDisplay:10.37,2013-02-09 06:38:00,
2013-02-09 01:43:00,15.7,12.8,29.83,NW,315,10.4,10.4,88,0.00,OVC,,0.00,WeatherDisplay:10.37,2013-02-09 06:43:00,
2013-02-09 01:48:00,15.6,12.7,29.83,WNW,292,17.3,17.3,88,0.00,OVC,,0.00,WeatherDisplay:10.37,2013-02-09 06:48:00,
2013-02-09 01:53:00,15.3,12.4,29.83,NNW,338,12.7,12.7,88,0.00,OVC,,0.00,WeatherDisplay:10.37,2013-02-09 06:53:00,
2013-02-09 01:58:00,15.0,12.0,29.83,NW,315,11.8,11.8,88,0.00,OVC,,0.00,WeatherDisplay:10.37,2013-02-09 06:58:00,
2013-02-09 02:03:00,15.0,12.1,29.85,WNW,292,16.1,16.1,88,0.00,OVC,,0.00,WeatherDisplay:10.37,2013-02-09 07:03:00,
2013-02-09 02:08:00,15.0,12.1,29.85,NNW,338,15.0,15.0,88,0.00,OVC,,0.00,WeatherDisplay:10.37,2013-02-09 07:08:00,
2013-02-09 02:13:00,14.8,11.9,29.85,NNW,338,18.4,18.4,88,0.00,OVC,,0.00,WeatherDisplay:10.37,2013-02-09 07:13:00,
2013-02-09 02:18:00,14.7,11.8,29.85,NNW,338,21.9,21.9,88,0.00,OVC,,0.00,WeatherDisplay:10.37,2013-02-09 07:18:00,
2013-02-09 02:23:00,14.9,12.0,29.85,NNW,338,17.3,17.3,88,0.00,OVC,,0.00,WeatherDisplay:10.37,2013-02-09 07:23:00,
2013-02-09 02:28:00,14.8,11.9,29.85,NNE,22,12.7,12.7,88,0.00,OVC,,0.00,WeatherDisplay:10.37,2013-02-09 07:28:00,
2013-02-09 02:33:00,15.0,12.0,29.85,NW,315,15.0,15.0,88,0.00,OVC,,0.00,WeatherDisplay:10.37,2013-02-09 07:33:00,
2013-02-09 02:38:00,15.0,12.0,29.85,NW,315,17.3,17.3,88,0.00,OVC,,0.00,WeatherDisplay:10.37,2013-02-09 07:38:00,
2013-02-09 02:43:00,14.9,12.0,29.85,NW,315,13.8,13.8,88,0.00,OVC,,0.00,WeatherDisplay:10.37,2013-02-09 07:43:00,
2013-02-09 02:48:00,14.8,11.9,29.85,NW,315,12.7,12.7,88,0.00,OVC,,0.00,WeatherDisplay:10.37,2013-02-09 07:48:00,
2013-02-09 02:53:00,14.6,11.7,29.85,East,90,11.5,11.5,88,0.00,OVC,,0.00,WeatherDisplay:10.37,2013-02-09 07:53:00,
2013-02-09 02:58:00,14.3,11.4,29.85,WNW,292,17.3,17.3,88,0.00,OVC,,0.00,WeatherDisplay:10.37,2013-02-09 07:58:00,
2013-02-09 03:03:00,14.2,11.3,29.84,NNW,338,19.6,19.6,88,0.00,OVC,,0.00,WeatherDisplay:10.37,2013-02-09 08:03:00,
2013-02-09 03:08:00,13.9,11.0,29.84,NNW,338,11.6,11.6,88,0.00,OVC,,0.00,WeatherDisplay:10.37,2013-02-09 08:08:00,
2013-02-09 03:13:00,14.1,11.2,29.84,NW,315,26.2,26.2,88,0.00,OVC,,0.00,WeatherDisplay:10.37,2013-02-09 08:13:00,
2013-02-09 03:18:00,13.7,10.8,29.84,North,360,20.7,20.7,88,0.00,OVC,,0.00,WeatherDisplay:10.37,2013-02-09 08:18:00,
2013-02-09 03:23:00,13.6,10.7,29.84,NNW,338,26.5,26.5,88,0.00,OVC,,0.00,WeatherDisplay:10.37,2013-02-09 08:23:00,
2013-02-09 03:28:00,13.4,10.5,29.84,North,360,15.0,15.0,88,0.00,OVC,,0.00,WeatherDisplay:10.37,2013-02-09 08:28:00,
2013-02-09 03:33:00,13.2,10.3,29.84,NW,315,15.0,15.0,88,0.00,OVC,,0.00,WeatherDisplay:10.37,2013-02-09 08:33:00,
2013-02-09 03:38:00,13.3,10.4,29.84,NW,315,17.3,17.3,88,0.00,OVC,,0.00,WeatherDisplay:10.37,2013-02-09 08:38:00,
2013-02-09 03:43:00,13.0,10.2,29.84,NE,45,12.7,12.7,88,0.00,OVC,,0.00,WeatherDisplay:10.37,2013-02-09 08:43:00,
2013-02-09 03:48:00,12.9,10.0,29.84,NNW,338,13.8,13.8,88,0.00,OVC,,0.00,WeatherDisplay:10.37,2013-02-09 08:48:00,
2013-02-09 03:53:00,12.7,9.8,29.84,NW,315,15.0,15.0,88,0.00,OVC,,0.00,WeatherDisplay:10.37,2013-02-09 08:53:00,
2013-02-09 03:58:00,12.4,9.5,29.84,NNE,22,16.1,16.1,88,0.00,OVC,,0.00,WeatherDisplay:10.37,2013-02-09 08:58:00,
2013-02-09 04:03:00,12.1,9.2,29.86,NNE,22,23.0,23.0,88,0.00,OVC,,0.00,WeatherDisplay:10.37,2013-02-09 09:03:00,
2013-02-09 04:08:00,11.9,9.0,29.86,NNW,338,24.2,24.2,88,0.00,OVC,,0.00,WeatherDisplay:10.37,2013-02-09 09:08:00,
2013-02-09 04:13:00,11.8,8.9,29.86,WNW,292,21.9,21.9,88,0.00,OVC,,0.00,WeatherDisplay:10.37,2013-02-09 09:13:00,
2013-02-09 04:18:00,11.4,8.5,29.86,NW,315,16.1,16.1,88,0.00,OVC,,0.00,WeatherDisplay:10.37,2013-02-09 09:18:00,
2013-02-09 04:23:00,11.2,8.4,29.86,ENE,68,23.0,23.0,88,0.00,OVC,,0.00,WeatherDisplay:10.37,2013-02-09 09:23:00,
2013-02-09 04:28:00,11.0,8.2,29.86,WNW,292,24.2,24.2,88,0.00,OVC,,0.00,WeatherDisplay:10.37,2013-02-09 09:28:00,
2013-02-09 04:33:00,10.8,7.9,29.86,NW,315,20.7,20.7,88,0.00,OVC,,0.00,WeatherDisplay:10.37,2013-02-09 09:33:00,
2013-02-09 04:38:00,10.5,8.6,29.86,NNE,22,11.9,11.9,92,0.00,OVC,,0.00,WeatherDisplay:10.37,2013-02-09 09:38:00,
2013-02-09 04:43:00,10.5,8.6,29.86,NW,315,14.6,14.6,92,0.00,OVC,,0.00,WeatherDisplay:10.37,2013-02-09 09:43:00,
2013-02-09 04:48:00,10.0,8.1,29.86,NNW,338,26.5,26.5,92,0.00,OVC,,0.00,WeatherDisplay:10.37,2013-02-09 09:48:00,
2013-02-09 04:53:00,10.2,8.3,29.86,North,360,19.8,19.8,92,0.00,OVC,,0.00,WeatherDisplay:10.37,2013-02-09 09:53:00,
2013-02-09 04:58:00,9.8,7.9,29.86,NW,315,26.5,26.5,92,0.00,OVC,,0.00,WeatherDisplay:10.37,2013-02-09 09:58:00,
2013-02-09 05:03:00,9.4,7.5,29.88,NW,315,18.4,18.4,92,0.00,OVC,,0.00,WeatherDisplay:10.37,2013-02-09 10:03:00,
2013-02-09 05:08:00,9.2,7.4,29.88,NW,315,17.3,17.3,92,0.00,OVC,,0.00,WeatherDisplay:10.37,2013-02-09 10:08:00,
2013-02-09 05:13:00,9.2,7.4,29.88,NNW,338,11.5,11.5,92,0.00,OVC,,0.00,WeatherDisplay:10.37,2013-02-09 10:13:00,
2013-02-09 05:18:00,9.1,7.3,29.88,NNW,338,15.0,15.0,92,0.00,OVC,,0.00,WeatherDisplay:10.37,2013-02-09 10:18:00,
2013-02-09 05:23:00,8.9,7.0,29.88,NW,315,23.7,23.7,92,0.00,OVC,,0.00,WeatherDisplay:10.37,2013-02-09 10:23:00,
2013-02-09 05:28:00,8.7,6.8,29.88,West,270,15.0,15.0,92,0.00,OVC,,0.00,WeatherDisplay:10.37,2013-02-09 10:28:00,
2013-02-09 05:34:00,8.5,6.6,29.88,NW,315,16.1,16.1,92,0.00,OVC,,0.00,WeatherDisplay:10.37,2013-02-09 10:34:00,
2013-02-09 05:40:00,8.4,6.6,29.88,NW,315,18.4,18.4,92,0.00,OVC,,0.00,WeatherDisplay:10.37,2013-02-09 10:40:00,
2013-02-09 05:45:00,8.2,6.4,29.88,East,90,15.0,15.0,92,0.00,OVC,,0.00,WeatherDisplay:10.37,2013-02-09 10:45:00,
2013-02-09 05:50:00,8.2,6.3,29.88,NW,315,18.4,18.4,92,0.00,OVC,,0.00,WeatherDisplay:10.37,2013-02-09 10:50:00,
2013-02-09 05:56:00,8.0,6.1,29.88,NNW,338,18.4,18.4,92,0.00,OVC,,0.00,WeatherDisplay:10.37,2013-02-09 10:56:00,
2013-02-09 06:01:00,7.9,6.1,29.91,NW,315,17.3,17.3,92,0.00,OVC,,0.00,WeatherDisplay:10.37,2013-02-09 11:01:00,
2013-02-09 06:06:00,7.9,5.8,29.91,NW,315,17.3,17.3,91,0.00,OVC,,0.00,WeatherDisplay:10.37,2013-02-09 11:06:00,
2013-02-09 06:11:00,7.6,5.6,29.91,North,360,19.6,19.6,91,0.00,OVC,,0.00,WeatherDisplay:10.37,2013-02-09 11:11:00,
2013-02-09 06:16:00,7.6,5.5,29.91,WNW,292,39.1,39.1,91,0.00,OVC,,0.00,WeatherDisplay:10.37,2013-02-09 11:16:00,
2013-02-09 06:21:00,7.3,5.2,29.91,NNW,338,16.1,16.1,91,0.00,OVC,,0.00,WeatherDisplay:10.37,2013-02-09 11:21:00,
2013-02-09 06:26:00,7.3,5.2,29.91,West,270,15.0,15.0,91,0.00,OVC,,0.00,WeatherDisplay:10.37,2013-02-09 11:26:00,
2013-02-09 06:31:00,7.0,4.9,29.91,NNW,338,19.6,19.6,91,0.00,OVC,,0.00,WeatherDisplay:10.37,2013-02-09 11:31:00,
2013-02-09 06:36:00,6.7,4.4,29.91,NW,315,25.3,25.3,90,0.00,OVC,,0.00,WeatherDisplay:10.37,2013-02-09 11:36:00,
2013-02-09 06:41:00,6.5,4.2,29.91,NNW,338,32.9,32.9,90,0.00,OVC,,0.00,WeatherDisplay:10.37,2013-02-09 11:41:00,
2013-02-09 06:46:00,6.3,4.0,29.91,NW,315,13.8,13.8,90,0.00,OVC,,0.00,WeatherDisplay:10.37,2013-02-09 11:46:00,
2013-02-09 06:51:00,6.4,4.0,29.91,WNW,292,26.5,26.5,90,0.00,OVC,,0.00,WeatherDisplay:10.37,2013-02-09 11:51:00,
2013-02-09 06:56:00,6.1,3.8,29.91,North,360,26.5,26.5,90,0.00,OVC,,0.00,WeatherDisplay:10.37,2013-02-09 11:56:00,
2013-02-09 07:01:00,6.0,3.7,29.94,NNW,338,38.0,38.0,90,0.00,OVC,,0.00,WeatherDisplay:10.37,2013-02-09 12:01:00,
2013-02-09 07:06:00,5.7,3.4,29.94,NW,315,23.0,23.0,90,0.00,OVC,,0.00,WeatherDisplay:10.37,2013-02-09 12:06:00,
2013-02-09 07:12:00,5.6,3.3,29.94,WNW,292,32.2,32.2,90,0.00,OVC,,0.00,WeatherDisplay:10.37,2013-02-09 12:12:00,
2013-02-09 07:17:00,5.7,0.8,29.94,North,360,17.3,17.3,80,0.00,OVC,,0.00,WeatherDisplay:10.37,2013-02-09 12:17:00,
2013-02-09 07:22:00,5.8,0.9,29.94,North,360,16.1,16.1,80,0.00,OVC,,0.00,WeatherDisplay:10.37,2013-02-09 12:22:00,
2013-02-09 07:27:00,5.6,0.8,29.94,NW,315,21.9,21.9,80,0.00,OVC,,0.00,WeatherDisplay:10.37,2013-02-09 12:27:00,
2013-02-09 07:32:00,5.4,0.6,29.94,NW,315,32.2,32.2,80,0.00,OVC,,0.00,WeatherDisplay:10.37,2013-02-09 12:32:00,
2013-02-09 07:37:00,5.3,0.5,29.94,North,360,20.7,20.7,80,0.00,OVC,,0.00,WeatherDisplay:10.37,2013-02-09 12:37:00,
2013-02-09 07:42:00,5.4,0.6,29.94,NNE,22,32.2,32.2,80,0.00,OVC,,0.00,WeatherDisplay:10.37,2013-02-09 12:42:00,
2013-02-09 07:47:00,5.2,0.3,29.94,NW,315,23.0,23.0,80,0.00,OVC,,0.00,WeatherDisplay:10.37,2013-02-09 12:47:00,
2013-02-09 07:52:00,5.5,0.6,29.94,NNW,338,16.1,16.1,80,0.00,OVC,,0.00,WeatherDisplay:10.37,2013-02-09 12:52:00,
2013-02-09 07:57:00,5.5,0.7,29.94,West,270,17.3,17.3,80,0.00,OVC,,0.00,WeatherDisplay:10.37,2013-02-09 12:57:00,
2013-02-09 08:02:00,5.4,0.6,29.96,NNE,22,31.1,31.1,80,0.00,OVC,,0.00,WeatherDisplay:10.37,2013-02-09 13:02:00,
2013-02-09 08:07:00,5.5,0.6,29.96,NNW,338,15.0,15.0,80,0.00,OVC,,0.00,WeatherDisplay:10.37,2013-02-09 13:07:00,
2013-02-09 08:12:00,5.5,0.7,29.96,NNW,338,24.5,24.5,80,0.00,OVC,,0.00,WeatherDisplay:10.37,2013-02-09 13:12:00,
2013-02-09 08:17:00,5.4,0.6,29.96,North,360,21.9,21.9,80,0.00,OVC,,0.00,WeatherDisplay:10.37,2013-02-09 13:17:00,
2013-02-09 08:22:00,5.5,0.6,29.96,NNW,338,29.9,29.9,80,0.00,OVC,,0.00,WeatherDisplay:10.37,2013-02-09 13:22:00,
2013-02-09 08:27:00,5.7,0.8,29.96,NW,315,23.0,23.0,80,0.00,OVC,,0.00,WeatherDisplay:10.37,2013-02-09 13:27:00,
2013-02-09 08:32:00,6.2,1.4,29.96,ENE,68,23.0,23.0,80,0.00,OVC,,0.00,WeatherDisplay:10.37,2013-02-09 13:32:00,
2013-02-09 08:37:00,5.8,1.0,29.96,NNE,22,19.6,19.6,80,0.00,OVC,,0.00,WeatherDisplay:10.37,2013-02-09 13:37:00,
2013-02-09 08:42:00,5.8,1.0,29.96,East,90,16.1,16.1,80,0.00,OVC,,0.00,WeatherDisplay:10.37,2013-02-09 13:42:00,
2013-02-09 08:47:00,5.9,1.1,29.96,NW,315,30.7,30.7,80,0.00,OVC,,0.00,WeatherDisplay:10.37,2013-02-09 13:47:00,
2013-02-09 08:52:00,5.6,0.7,29.96,NE,45,23.0,23.0,80,0.00,OVC,,0.00,WeatherDisplay:10.37,2013-02-09 13:52:00,
2013-02-09 08:57:00,5.8,1.0,29.96,NE,45,26.5,26.5,80,0.00,OVC,,0.00,WeatherDisplay:10.37,2013-02-09 13:57:00,
2013-02-09 09:02:00,6.1,1.0,30.00,NW,315,19.6,19.6,79,0.00,OVC,,0.00,WeatherDisplay:10.37,2013-02-09 14:02:00,
2013-02-09 09:08:00,6.0,0.9,30.00,NNW,338,39.1,39.1,79,0.00,OVC,,0.00,WeatherDisplay:10.37,2013-02-09 14:08:00,
2013-02-09 09:14:00,6.2,0.8,30.00,NNE,22,23.0,23.0,78,0.00,OVC,,0.00,WeatherDisplay:10.37,2013-02-09 14:14:00,
2013-02-09 09:19:00,6.8,1.1,30.00,NW,315,15.0,15.0,77,0.00,OVC,,0.00,WeatherDisplay:10.37,2013-02-09 14:19:00,
2013-02-09 09:24:00,7.1,1.1,30.00,NW,315,16.1,16.1,76,0.00,OVC,,0.00,WeatherDisplay:10.37,2013-02-09 14:24:00,
2013-02-09 09:29:00,7.3,1.3,30.00,NW,315,35.7,35.7,76,0.00,OVC,,0.00,WeatherDisplay:10.37,2013-02-09 14:29:00,
2013-02-09 09:34:00,6.9,0.9,30.00,NE,45,40.3,40.3,76,0.00,OVC,,0.00,WeatherDisplay:10.37,2013-02-09 14:34:00,
2013-02-09 09:39:00,6.9,0.9,30.00,WNW,292,21.9,21.9,76,0.00,OVC,,0.00,WeatherDisplay:10.37,2013-02-09 14:39:00,
2013-02-09 09:44:00,7.3,1.3,30.00,West,270,20.7,20.7,76,0.00,OVC,,0.00,WeatherDisplay:10.37,2013-02-09 14:44:00,
2013-02-09 09:49:00,7.5,1.5,30.00,East,90,33.4,33.4,76,0.00,OVC,,0.00,WeatherDisplay:10.37,2013-02-09 14:49:00,
2013-02-09 09:54:00,7.6,1.6,30.00,NW,315,33.4,33.4,76,0.00,OVC,,0.00,WeatherDisplay:10.37,2013-02-09 14:54:00,
2013-02-09 09:59:00,7.6,1.6,30.00,WNW,292,38.0,38.0,76,0.00,OVC,,0.00,WeatherDisplay:10.37,2013-02-09 14:59:00,
2013-02-09 10:04:00,7.4,1.4,30.03,NE,45,34.5,34.5,76,0.00,BKN,,0.00,WeatherDisplay:10.37,2013-02-09 15:04:00,
2013-02-09 10:09:00,7.4,1.4,30.03,NW,315,32.2,32.2,76,0.00,BKN,,0.00,WeatherDisplay:10.37,2013-02-09 15:09:00,
2013-02-09 10:14:00,7.8,1.5,30.03,WNW,292,29.9,29.9,75,0.00,BKN,,0.00,WeatherDisplay:10.37,2013-02-09 15:14:00,
2013-02-09 10:19:00,8.3,2.0,30.03,NW,315,38.0,38.0,75,0.00,BKN,,0.00,WeatherDisplay:10.37,2013-02-09 15:19:00,
2013-02-09 10:24:00,8.1,1.8,30.03,NNW,338,36.8,36.8,75,0.00,BKN,,0.00,WeatherDisplay:10.37,2013-02-09 15:24:00,
2013-02-09 10:29:00,8.4,2.1,30.03,North,360,25.3,25.3,75,0.00,BKN,,0.00,WeatherDisplay:10.37,2013-02-09 15:29:00,
2013-02-09 10:34:00,8.3,2.0,30.03,NW,315,25.3,25.3,75,0.00,BKN,,0.00,WeatherDisplay:10.37,2013-02-09 15:34:00,
2013-02-09 10:39:00,7.7,1.4,30.03,NW,315,29.9,29.9,75,0.00,BKN,,0.00,WeatherDisplay:10.37,2013-02-09 15:39:00,
2013-02-09 10:44:00,7.8,1.5,30.03,NW,315,33.4,33.4,75,0.00,BKN,,0.00,WeatherDisplay:10.37,2013-02-09 15:44:00,
2013-02-09 10:49:00,8.2,1.9,30.03,NW,315,31.1,31.1,75,0.00,BKN,,0.00,WeatherDisplay:10.37,2013-02-09 15:49:00,
2013-02-09 10:54:00,9.1,2.7,30.03,NW,315,27.6,27.6,75,0.00,BKN,,0.00,WeatherDisplay:10.37,2013-02-09 15:54:00,
2013-02-09 10:59:00,9.6,3.2,30.03,NW,315,29.9,29.9,75,0.00,BKN,,0.00,WeatherDisplay:10.37,2013-02-09 15:59:00,
2013-02-09 11:04:00,9.7,3.4,30.04,NNW,338,27.7,27.7,75,0.00,BKN,,0.00,WeatherDisplay:10.37,2013-02-09 16:04:00,
2013-02-09 11:09:00,9.3,2.7,30.04,NW,315,34.5,34.5,74,0.00,BKN,,0.00,WeatherDisplay:10.37,2013-02-09 16:09:00,
2013-02-09 11:14:00,9.6,2.9,30.04,NW,315,28.8,28.8,74,0.00,BKN,,0.00,WeatherDisplay:10.37,2013-02-09 16:14:00,
2013-02-09 11:19:00,9.4,2.5,30.04,NW,315,27.6,27.6,73,0.00,BKN,,0.00,WeatherDisplay:10.37,2013-02-09 16:19:00,
2013-02-09 11:24:00,9.5,2.6,30.04,NW,315,31.1,31.1,73,0.00,BKN,,0.00,WeatherDisplay:10.37,2013-02-09 16:24:00,
2013-02-09 11:29:00,9.9,2.7,30.05,NNW,338,21.9,21.9,72,0.00,OVC,,0.00,WeatherDisplay:10.37,2013-02-09 16:29:00,
2013-02-09 11:34:00,8.8,1.6,30.05,NW,315,36.8,36.8,72,0.00,OVC,,0.00,WeatherDisplay:10.37,2013-02-09 16:34:00,
2013-02-09 11:39:00,8.7,1.5,30.05,WNW,292,36.8,36.8,72,0.00,OVC,,0.00,WeatherDisplay:10.37,2013-02-09 16:39:00,
2013-02-09 11:45:00,8.7,-0.3,30.05,North,360,32.2,32.2,66,0.00,OVC,,0.00,WeatherDisplay:10.37,2013-02-09 16:45:00,
2013-02-09 11:50:00,9.5,2.3,30.05,NW,315,28.8,28.8,72,0.00,OVC,,0.00,WeatherDisplay:10.37,2013-02-09 16:50:00,
2013-02-09 11:55:00,9.2,2.0,30.05,WNW,292,35.7,35.7,72,0.00,OVC,,0.00,WeatherDisplay:10.37,2013-02-09 16:55:00,
2013-02-09 12:00:00,9.6,2.4,30.05,NW,315,33.4,33.4,72,0.00,OVC,,0.00,WeatherDisplay:10.37,2013-02-09 17:00:00,
2013-02-09 12:05:00,9.9,-2.7,30.06,NW,315,29.9,29.9,56,0.00,SCT,,0.00,WeatherDisplay:10.37,2013-02-09 17:05:00,
2013-02-09 12:10:00,9.2,-3.3,30.06,NW,315,32.2,32.2,56,0.00,SCT,,0.00,WeatherDisplay:10.37,2013-02-09 17:10:00,
2013-02-09 12:15:00,10.0,-2.6,30.06,ENE,68,26.5,26.5,56,0.00,SCT,,0.00,WeatherDisplay:10.37,2013-02-09 17:15:00,
2013-02-09 12:20:00,10.2,-1.6,30.06,ENE,68,21.9,21.9,58,0.00,SCT,,0.00,WeatherDisplay:10.37,2013-02-09 17:20:00,
2013-02-09 12:25:00,10.1,-1.7,30.06,NNW,338,35.7,35.7,58,0.00,SCT,,0.00,WeatherDisplay:10.37,2013-02-09 17:25:00,
2013-02-09 12:30:00,10.2,-1.6,30.06,East,90,32.2,32.2,58,0.00,SCT,,0.00,WeatherDisplay:10.37,2013-02-09 17:30:00,
2013-02-09 12:35:00,9.6,-2.2,30.06,NW,315,40.3,40.3,58,0.00,SCT,,0.00,WeatherDisplay:10.37,2013-02-09 17:35:00,
2013-02-09 12:40:00,9.8,-2.0,30.06,WNW,292,36.8,36.8,58,0.00,SCT,,0.00,WeatherDisplay:10.37,2013-02-09 17:40:00,
2013-02-09 12:45:00,10.6,-1.3,30.06,North,360,31.1,31.1,58,0.00,SCT,,0.00,WeatherDisplay:10.37,2013-02-09 17:45:00,
2013-02-09 12:50:00,11.1,-0.8,30.06,NW,315,19.6,19.6,58,0.00,SCT,,0.00,WeatherDisplay:10.37,2013-02-09 17:50:00,
2013-02-09 12:55:00,10.8,-1.1,30.06,North,360,36.8,36.8,58,0.00,SCT,,0.00,WeatherDisplay:10.37,2013-02-09 17:55:00,
2013-02-09 13:00:00,10.4,-1.5,30.06,NW,315,26.5,26.5,58,0.00,SCT,,0.00,WeatherDisplay:10.37,2013-02-09 18:00:00,
2013-02-09 13:05:00,10.0,-2.6,30.07,NNW,338,32.2,32.2,56,0.00,BKN,,0.00,WeatherDisplay:10.37,2013-02-09 18:05:00,
2013-02-09 13:10:00,10.3,-1.5,30.07,North,360,25.2,25.2,58,0.00,BKN,,0.00,WeatherDisplay:10.37,2013-02-09 18:10:00,
2013-02-09 13:15:00,10.4,-2.2,30.07,WNW,292,29.9,29.9,56,0.00,BKN,,0.00,WeatherDisplay:10.37,2013-02-09 18:15:00,
2013-02-09 13:20:00,10.4,-1.5,30.07,NNW,338,24.2,24.2,58,0.00,BKN,,0.00,WeatherDisplay:10.37,2013-02-09 18:20:00,
2013-02-09 13:25:00,10.3,-1.6,30.07,WNW,292,27.6,27.6,58,0.00,BKN,,0.00,WeatherDisplay:10.37,2013-02-09 18:25:00,
2013-02-09 13:30:00,9.8,-2.0,30.07,NW,315,43.7,43.7,58,0.00,BKN,,0.00,WeatherDisplay:10.37,2013-02-09 18:30:00,
2013-02-09 13:35:00,9.7,-2.9,30.07,NW,315,26.5,26.5,56,0.00,BKN,,0.00,WeatherDisplay:10.37,2013-02-09 18:35:00,
2013-02-09 13:40:00,9.5,-2.3,30.07,NW,315,31.1,31.1,58,0.00,BKN,,0.00,WeatherDisplay:10.37,2013-02-09 18:40:00,
2013-02-09 13:45:00,9.6,-3.0,30.07,WNW,292,27.6,27.6,56,0.00,BKN,,0.00,WeatherDisplay:10.37,2013-02-09 18:45:00,
2013-02-09 13:50:00,9.8,-2.7,30.07,NW,315,25.3,25.3,56,0.00,BKN,,0.00,WeatherDisplay:10.37,2013-02-09 18:50:00,
2013-02-09 13:55:00,10.1,-2.5,30.07,NNE,22,24.2,24.2,56,0.00,BKN,,0.00,WeatherDisplay:10.37,2013-02-09 18:55:00,
2013-02-09 14:00:00,10.0,-1.8,30.07,NNW,338,34.5,34.5,58,0.00,BKN,,0.00,WeatherDisplay:10.37,2013-02-09 19:00:00,
2013-02-09 14:05:00,10.1,-2.5,30.08,NW,315,31.1,31.1,56,0.00,CLR,,0.00,WeatherDisplay:10.37,2013-02-09 19:05:00,
2013-02-09 14:10:00,10.0,-1.9,30.08,NNW,338,27.6,27.6,58,0.00,CLR,,0.00,WeatherDisplay:10.37,2013-02-09 19:10:00,
2013-02-09 14:16:00,10.1,-1.7,30.08,NNW,338,22.0,22.0,58,0.00,CLR,,0.00,WeatherDisplay:10.37,2013-02-09 19:16:00,
2013-02-09 14:22:00,9.8,-2.1,30.08,West,270,29.9,29.9,58,0.00,CLR,,0.00,WeatherDisplay:10.37,2013-02-09 19:22:00,
2013-02-09 14:27:00,10.0,-1.8,30.08,ENE,68,28.4,28.4,58,0.00,CLR,,0.00,WeatherDisplay:10.37,2013-02-09 19:27:00,
2013-02-09 14:32:00,10.4,-1.5,30.08,NNW,338,24.2,24.2,58,0.00,CLR,,0.00,WeatherDisplay:10.37,2013-02-09 19:32:00,
2013-02-09 14:38:00,10.5,-1.4,30.08,NNW,338,25.8,25.8,58,0.00,CLR,,0.00,WeatherDisplay:10.37,2013-02-09 19:38:00,
2013-02-09 14:43:00,10.1,-1.8,30.08,NNW,338,31.1,31.1,58,0.00,CLR,,0.00,WeatherDisplay:10.37,2013-02-09 19:43:00,
2013-02-09 14:48:00,10.3,-1.5,30.08,NNW,338,28.8,28.8,58,0.00,CLR,,0.00,WeatherDisplay:10.37,2013-02-09 19:48:00,
2013-02-09 14:53:00,10.3,-1.5,30.08,NW,315,25.3,25.3,58,0.00,CLR,,0.00,WeatherDisplay:10.37,2013-02-09 19:53:00,
2013-02-09 14:58:00,10.7,-1.2,30.08,WNW,292,29.9,29.9,58,0.00,CLR,,0.00,WeatherDisplay:10.37,2013-02-09 19:58:00,
2013-02-09 15:03:00,10.4,-1.5,30.10,NNW,338,26.5,26.5,58,0.00,CLR,,0.00,WeatherDisplay:10.37,2013-02-09 20:03:00,
2013-02-09 15:08:00,10.4,-1.5,30.10,NW,315,27.6,27.6,58,0.00,CLR,,0.00,WeatherDisplay:10.37,2013-02-09 20:08:00,
2013-02-09 15:13:00,9.9,-2.0,30.10,NNE,22,29.9,29.9,58,0.00,CLR,,0.00,WeatherDisplay:10.37,2013-02-09 20:13:00,
2013-02-09 15:18:00,10.2,-1.6,30.10,NNW,338,29.9,29.9,58,0.00,CLR,,0.00,WeatherDisplay:10.37,2013-02-09 20:18:00,
2013-02-09 15:23:00,9.9,-2.0,30.10,ENE,68,24.2,24.2,58,0.00,CLR,,0.00,WeatherDisplay:10.37,2013-02-09 20:23:00,
2013-02-09 15:28:00,9.8,-2.0,30.10,NW,315,18.4,18.4,58,0.00,CLR,,0.00,WeatherDisplay:10.37,2013-02-09 20:28:00,
2013-02-09 15:33:00,9.8,-2.0,30.10,NNW,338,29.9,29.9,58,0.00,CLR,,0.00,WeatherDisplay:10.37,2013-02-09 20:33:00,
2013-02-09 15:38:00,9.7,-1.1,30.10,NNW,338,29.9,29.9,61,0.00,CLR,,0.00,WeatherDisplay:10.37,2013-02-09 20:38:00,
2013-02-09 15:43:00,9.5,-2.3,30.10,WNW,292,24.2,24.2,58,0.00,CLR,,0.00,WeatherDisplay:10.37,2013-02-09 20:43:00,
2013-02-09 15:48:00,9.6,-2.2,30.10,NNW,338,27.6,27.6,58,0.00,CLR,,0.00,WeatherDisplay:10.37,2013-02-09 20:48:00,
2013-02-09 15:53:00,9.4,-2.4,30.10,NW,315,26.5,26.5,58,0.00,CLR,,0.00,WeatherDisplay:10.37,2013-02-09 20:53:00,
2013-02-09 15:58:00,9.7,-2.2,30.10,NNW,338,29.9,29.9,58,0.00,CLR,,0.00,WeatherDisplay:10.37,2013-02-09 20:58:00,
2013-02-09 16:03:00,9.5,-2.3,30.12,NNW,338,23.0,23.0,58,0.00,CLR,,0.00,WeatherDisplay:10.37,2013-02-09 21:03:00,
2013-02-09 16:08:00,9.5,-2.7,30.12,WNW,292,21.9,21.9,57,0.00,CLR,,0.00,WeatherDisplay:10.37,2013-02-09 21:08:00,
2013-02-09 16:13:00,9.4,-3.1,30.12,North,360,32.2,32.2,56,0.00,CLR,,0.00,WeatherDisplay:10.37,2013-02-09 21:13:00,
2013-02-09 16:18:00,9.2,-3.4,30.12,NNW,338,29.9,29.9,56,0.00,CLR,,0.00,WeatherDisplay:10.37,2013-02-09 21:18:00,
2013-02-09 16:23:00,9.1,-3.4,30.12,NNW,338,20.7,20.7,56,0.00,CLR,,0.00,WeatherDisplay:10.37,2013-02-09 21:23:00,
2013-02-09 16:28:00,9.1,-3.4,30.12,NNW,338,21.9,21.9,56,0.00,CLR,,0.00,WeatherDisplay:10.37,2013-02-09 21:28:00,
2013-02-09 16:33:00,9.2,-3.4,30.12,NNW,338,23.0,23.0,56,0.00,CLR,,0.00,WeatherDisplay:10.37,2013-02-09 21:33:00,
2013-02-09 16:38:00,8.9,-3.6,30.12,NW,315,23.0,23.0,56,0.00,CLR,,0.00,WeatherDisplay:10.37,2013-02-09 21:38:00,
2013-02-09 16:44:00,9.0,-3.5,30.12,NNW,338,19.6,19.6,56,0.00,CLR,,0.00,WeatherDisplay:10.37,2013-02-09 21:44:00,
2013-02-09 16:49:00,8.7,-3.8,30.12,North,360,18.4,18.4,56,0.00,CLR,,0.00,WeatherDisplay:10.37,2013-02-09 21:49:00,
2013-02-09 16:54:00,8.6,-3.9,30.12,NW,315,18.4,18.4,56,0.00,CLR,,0.00,WeatherDisplay:10.37,2013-02-09 21:54:00,
2013-02-09 16:59:00,8.2,-4.3,30.12,North,360,10.5,10.5,56,0.00,CLR,,0.00,WeatherDisplay:10.37,2013-02-09 21:59:00,
2013-02-09 17:04:00,8.2,-4.3,30.14,North,360,16.1,16.1,56,0.00,CLR,,0.00,WeatherDisplay:10.37,2013-02-09 22:04:00,
2013-02-09 17:09:00,8.0,-4.8,30.14,WNW,292,21.9,21.9,55,0.00,CLR,,0.00,WeatherDisplay:10.37,2013-02-09 22:09:00,
2013-02-09 17:14:00,7.8,-5.0,30.14,West,270,11.6,11.6,55,0.00,CLR,,0.00,WeatherDisplay:10.37,2013-02-09 22:14:00,
2013-02-09 17:19:00,7.6,-5.2,30.14,NNW,338,20.7,20.7,55,0.00,CLR,,0.00,WeatherDisplay:10.37,2013-02-09 22:19:00,
2013-02-09 17:24:00,7.4,-5.4,30.14,WNW,292,11.5,11.5,55,0.00,CLR,,0.00,WeatherDisplay:10.37,2013-02-09 22:24:00,
2013-02-09 17:29:00,7.4,-5.5,30.14,NW,315,24.2,24.2,55,0.00,CLR,,0.00,WeatherDisplay:10.37,2013-02-09 22:29:00,
2013-02-09 17:34:00,7.3,-5.5,30.14,WNW,292,17.6,17.6,55,0.00,CLR,,0.00,WeatherDisplay:10.37,2013-02-09 22:34:00,
2013-02-09 17:39:00,7.4,-5.5,30.14,NW,315,25.3,25.3,55,0.00,CLR,,0.00,WeatherDisplay:10.37,2013-02-09 22:39:00,
2013-02-09 17:44:00,7.1,-5.7,30.14,NW,315,13.8,13.8,55,0.00,CLR,,0.00,WeatherDisplay:10.37,2013-02-09 22:44:00,
2013-02-09 17:49:00,6.9,-5.9,30.14,NW,315,11.5,11.5,55,0.00,CLR,,0.00,WeatherDisplay:10.37,2013-02-09 22:49:00,
2013-02-09 17:54:00,7.0,-5.8,30.14,NW,315,12.7,12.7,55,0.00,CLR,,0.00,WeatherDisplay:10.37,2013-02-09 22:54:00,
2013-02-09 17:59:00,6.9,-5.9,30.14,NW,315,15.0,15.0,55,0.00,CLR,,0.00,WeatherDisplay:10.37,2013-02-09 22:59:00,
2013-02-09 18:04:00,6.9,-5.9,30.18,NW,315,19.6,19.6,55,0.00,CLR,,0.00,WeatherDisplay:10.37,2013-02-09 23:04:00,
2013-02-09 18:09:00,6.7,-6.4,30.18,NW,315,11.5,11.5,54,0.00,CLR,,0.00,WeatherDisplay:10.37,2013-02-09 23:09:00,
2013-02-09 18:14:00,6.6,-6.9,30.18,NNW,338,16.1,16.1,53,0.00,CLR,,0.00,WeatherDisplay:10.37,2013-02-09 23:14:00,
2013-02-09 18:19:00,6.5,-9.5,30.18,NNW,338,13.8,13.8,47,0.00,CLR,,0.00,WeatherDisplay:10.37,2013-02-09 23:19:00,
2013-02-09 18:24:00,6.6,-7.3,30.18,NW,315,20.7,20.7,52,0.00,CLR,,0.00,WeatherDisplay:10.37,2013-02-09 23:24:00,
2013-02-09 18:29:00,6.6,-7.3,30.18,NNW,338,17.3,17.3,52,0.00,CLR,,0.00,WeatherDisplay:10.37,2013-02-09 23:29:00,
2013-02-09 18:34:00,6.4,-7.5,30.18,WNW,292,15.0,15.0,52,0.00,CLR,,0.00,WeatherDisplay:10.37,2013-02-09 23:34:00,
2013-02-09 18:40:00,6.6,-7.3,30.18,NW,315,24.2,24.2,52,0.00,CLR,,0.00,WeatherDisplay:10.37,2013-02-09 23:40:00,
2013-02-09 18:45:00,6.7,-7.2,30.18,NNW,338,28.8,28.8,52,0.00,CLR,,0.00,WeatherDisplay:10.37,2013-02-09 23:45:00,
2013-02-09 18:50:00,6.6,-7.3,30.18,North,360,27.6,27.6,52,0.00,CLR,,0.00,WeatherDisplay:10.37,2013-02-09 23:50:00,
2013-02-09 18:56:00,6.5,-7.4,30.18,NW,315,17.3,17.3,52,0.00,CLR,,0.00,WeatherDisplay:10.37,2013-02-09 23:56:00,
2013-02-09 19:01:00,6.5,-9.5,30.22,NW,315,16.1,16.1,47,0.00,CLR,,0.00,WeatherDisplay:10.37,2013-02-10 00:01:00,
2013-02-09 19:06:00,6.7,-7.2,30.22,NNE,22,13.8,13.8,52,0.00,CLR,,0.00,WeatherDisplay:10.37,2013-02-10 00:06:00,
2013-02-09 19:11:00,6.6,-7.3,30.22,North,360,15.0,15.0,52,0.00,CLR,,0.00,WeatherDisplay:10.37,2013-02-10 00:11:00,
2013-02-09 19:16:00,6.6,-7.3,30.22,NNE,22,18.4,18.4,52,0.00,CLR,,0.00,WeatherDisplay:10.37,2013-02-10 00:16:00,
2013-02-09 19:21:00,6.4,-7.6,30.22,NNW,338,19.6,19.6,52,0.00,CLR,,0.00,WeatherDisplay:10.37,2013-02-10 00:21:00,
2013-02-09 19:26:00,6.2,-7.7,30.22,NW,315,16.1,16.1,52,0.00,CLR,,0.00,WeatherDisplay:10.37,2013-02-10 00:26:00,
2013-02-09 19:31:00,6.1,-7.8,30.22,NW,315,12.7,12.7,52,0.00,CLR,,0.00,WeatherDisplay:10.37,2013-02-10 00:31:00,
2013-02-09 19:36:00,6.2,-7.7,30.22,West,270,13.8,13.8,52,0.00,CLR,,0.00,WeatherDisplay:10.37,2013-02-10 00:36:00,
2013-02-09 19:41:00,6.3,-7.6,30.22,NNW,338,13.8,13.8,52,0.00,CLR,,0.00,WeatherDisplay:10.37,2013-02-10 00:41:00,
2013-02-09 19:46:00,6.2,-7.7,30.22,NE,45,12.7,12.7,52,0.00,CLR,,0.00,WeatherDisplay:10.37,2013-02-10 00:46:00,
2013-02-09 19:51:00,6.1,-7.8,30.22,WNW,292,19.6,19.6,52,0.00,CLR,,0.00,WeatherDisplay:10.37,2013-02-10 00:51:00,
2013-02-09 19:56:00,6.4,-7.6,30.22,NW,315,14.4,14.4,52,0.00,CLR,,0.00,WeatherDisplay:10.37,2013-02-10 00:56:00,
2013-02-09 20:01:00,6.2,-7.7,30.25,NW,315,11.5,11.5,52,0.00,CLR,,0.00,WeatherDisplay:10.37,2013-02-10 01:01:00,
2013-02-09 20:06:00,6.0,-7.9,30.25,NNW,338,9.2,9.2,52,0.00,CLR,,0.00,WeatherDisplay:10.37,2013-02-10 01:06:00,
2013-02-09 20:11:00,6.1,-7.8,30.25,NW,315,17.3,17.3,52,0.00,CLR,,0.00,WeatherDisplay:10.37,2013-02-10 01:11:00,
2013-02-09 20:17:00,6.1,-7.8,30.25,NW,315,10.4,10.4,52,0.00,CLR,,0.00,WeatherDisplay:10.37,2013-02-10 01:17:00,
2013-02-09 20:22:00,6.2,-7.7,30.25,NNW,338,9.0,9.0,52,0.00,CLR,,0.00,WeatherDisplay:10.37,2013-02-10 01:22:00,
2013-02-09 20:27:00,6.0,-7.9,30.25,NW,315,8.3,8.3,52,0.00,CLR,,0.00,WeatherDisplay:10.37,2013-02-10 01:27:00,
2013-02-09 20:32:00,6.0,-7.9,30.25,ENE,68,6.9,6.9,52,0.00,CLR,,0.00,WeatherDisplay:10.37,2013-02-10 01:32:00,
2013-02-09 20:38:00,5.6,-8.3,30.25,NNE,22,9.2,9.2,52,0.00,CLR,,0.00,WeatherDisplay:10.37,2013-02-10 01:38:00,
2013-02-09 20:43:00,5.6,-8.3,30.25,North,360,9.2,9.2,52,0.00,CLR,,0.00,WeatherDisplay:10.37,2013-02-10 01:43:00,
2013-02-09 20:48:00,6.1,-7.8,30.25,West,270,15.0,15.0,52,0.00,CLR,,0.00,WeatherDisplay:10.37,2013-02-10 01:48:00,
2013-02-09 20:53:00,6.0,-7.9,30.25,NW,315,23.0,23.0,52,0.00,CLR,,0.00,WeatherDisplay:10.37,2013-02-10 01:53:00,
2013-02-09 20:58:00,6.5,-7.5,30.25,NW,315,12.7,12.7,52,0.00,CLR,,0.00,WeatherDisplay:10.37,2013-02-10 01:58:00,
2013-02-09 21:03:00,6.4,-7.2,30.26,NW,315,17.9,17.9,53,0.00,CLR,,0.00,WeatherDisplay:10.37,2013-02-10 02:03:00,
2013-02-09 21:08:00,6.8,-6.0,30.26,NNW,338,14.5,14.5,55,0.00,CLR,,0.00,WeatherDisplay:10.37,2013-02-10 02:08:00,
2013-02-09 21:13:00,7.0,-5.8,30.26,NW,315,29.9,29.9,55,0.00,CLR,,0.00,WeatherDisplay:10.37,2013-02-10 02:13:00,
2013-02-09 21:18:00,7.1,-5.3,30.26,NW,315,16.1,16.1,56,0.00,CLR,,0.00,WeatherDisplay:10.37,2013-02-10 02:18:00,
2013-02-09 21:23:00,7.1,-5.3,30.26,NW,315,19.6,19.6,56,0.00,CLR,,0.00,WeatherDisplay:10.37,2013-02-10 02:23:00,
2013-02-09 21:28:00,6.9,-5.6,30.26,NW,315,12.7,12.7,56,0.00,CLR,,0.00,WeatherDisplay:10.37,2013-02-10 02:28:00,
2013-02-09 21:33:00,6.9,-4.1,30.26,West,270,18.4,18.4,60,0.00,CLR,,0.00,WeatherDisplay:10.37,2013-02-10 02:33:00,
2013-02-09 21:38:00,6.6,-5.8,30.26,North,360,11.5,11.5,56,0.00,CLR,,0.00,WeatherDisplay:10.37,2013-02-10 02:38:00,
2013-02-09 21:43:00,6.5,-5.9,30.26,NW,315,20.7,20.7,56,0.00,CLR,,0.00,WeatherDisplay:10.37,2013-02-10 02:43:00,
2013-02-09 21:48:00,6.4,-6.0,30.26,NNW,338,12.7,12.7,56,0.00,CLR,,0.00,WeatherDisplay:10.37,2013-02-10 02:48:00,
2013-02-09 21:53:00,6.4,-6.0,30.26,North,360,9.2,9.2,56,0.00,CLR,,0.00,WeatherDisplay:10.37,2013-02-10 02:53:00,
2013-02-09 21:59:00,6.1,-6.2,30.26,NW,315,8.7,8.7,56,0.00,CLR,,0.00,WeatherDisplay:10.37,2013-02-10 02:59:00,
2013-02-09 22:04:00,6.0,-6.3,30.27,WNW,292,9.2,9.2,56,0.00,CLR,,0.00,WeatherDisplay:10.37,2013-02-10 03:04:00,
2013-02-09 22:09:00,6.2,-6.1,30.27,West,270,5.8,5.8,56,0.00,CLR,,0.00,WeatherDisplay:10.37,2013-02-10 03:09:00,
2013-02-09 22:14:00,5.9,-6.5,30.27,WNW,292,8.1,8.1,56,0.00,CLR,,0.00,WeatherDisplay:10.37,2013-02-10 03:14:00,
2013-02-09 22:19:00,6.0,-6.4,30.27,North,360,12.7,12.7,56,0.00,CLR,,0.00,WeatherDisplay:10.37,2013-02-10 03:19:00,
2013-02-09 22:24:00,5.6,-6.7,30.27,North,360,9.3,9.3,56,0.00,CLR,,0.00,WeatherDisplay:10.37,2013-02-10 03:24:00,
2013-02-09 22:29:00,5.5,-6.9,30.27,NNE,22,6.9,6.9,56,0.00,CLR,,0.00,WeatherDisplay:10.37,2013-02-10 03:29:00,
2013-02-09 22:34:00,5.3,-7.0,30.27,ENE,68,10.4,10.4,56,0.00,CLR,,0.00,WeatherDisplay:10.37,2013-02-10 03:34:00,
2013-02-09 22:39:00,5.3,-7.0,30.27,East,90,6.9,6.9,56,0.00,CLR,,0.00,WeatherDisplay:10.37,2013-02-10 03:39:00,
2013-02-09 22:44:00,5.3,-7.0,30.27,NW,315,8.1,8.1,56,0.00,CLR,,0.00,WeatherDisplay:10.37,2013-02-10 03:44:00,
2013-02-09 22:49:00,5.2,-7.5,30.27,NNW,338,6.9,6.9,55,0.00,CLR,,0.00,WeatherDisplay:10.37,2013-02-10 03:49:00,
2013-02-09 22:54:00,5.5,-7.2,30.27,SSE,158,5.8,5.8,55,0.00,CLR,,0.00,WeatherDisplay:10.37,2013-02-10 03:54:00,
2013-02-09 22:59:00,5.7,-7.0,30.27,NE,45,5.8,5.8,55,0.00,CLR,,0.00,WeatherDisplay:10.37,2013-02-10 03:59:00,
2013-02-09 23:04:00,5.4,-7.3,30.29,NNW,338,6.5,6.5,55,0.00,CLR,,0.00,WeatherDisplay:10.37,2013-02-10 04:04:00,
2013-02-09 23:09:00,5.8,-2.2,30.29,ENE,68,9.2,9.2,69,0.00,CLR,,0.00,WeatherDisplay:10.37,2013-02-10 04:09:00,
2013-02-09 23:14:00,5.8,-2.1,30.29,NNW,338,8.1,8.1,69,0.00,CLR,,0.00,WeatherDisplay:10.37,2013-02-10 04:14:00,
2013-02-09 23:19:00,6.0,-2.0,30.29,West,270,5.8,5.8,69,0.00,CLR,,0.00,WeatherDisplay:10.37,2013-02-10 04:19:00,
2013-02-09 23:24:00,5.9,-2.1,30.29,North,360,4.6,4.6,69,0.00,CLR,,0.00,WeatherDisplay:10.37,2013-02-10 04:24:00,
2013-02-09 23:29:00,5.8,-2.1,30.29,West,270,6.9,6.9,69,0.00,CLR,,0.00,WeatherDisplay:10.37,2013-02-10 04:29:00,
2013-02-09 23:34:00,5.9,-2.1,30.29,NW,315,8.3,8.3,69,0.00,CLR,,0.00,WeatherDisplay:10.37,2013-02-10 04:34:00,
2013-02-09 23:39:00,6.0,-2.0,30.29,NE,45,9.2,9.2,69,0.00,CLR,,0.00,WeatherDisplay:10.37,2013-02-10 04:39:00,
2013-02-09 23:44:00,5.7,-2.3,30.29,North,360,6.9,6.9,69,0.00,CLR,,0.00,WeatherDisplay:10.37,2013-02-10 04:44:00,
2013-02-09 23:49:00,5.7,-2.3,30.29,NW,315,5.8,5.8,69,0.00,CLR,,0.00,WeatherDisplay:10.37,2013-02-10 04:49:00,
2013-02-09 23:54:00,5.8,-2.2,30.29,ENE,68,11.5,11.5,69,0.00,CLR,,0.00,WeatherDisplay:10.37,2013-02-10 04:54:00,
2013-02-09 23:59:00,6.0,-2.0,30.29,NW,315,8.1,8.1,69,0.00,CLR,,0.00,WeatherDisplay:10.37,2013-02-10 04:59:00,